This is the latest recevied weather packets stored in our database for station/object IT9FDP-13. If no packets are shown the sender has not sent any weather packets the latest 10 day(s).
| Time | Temp. | Humidity | Pressure | Rain* | Wind** | Luminosity | Snow |
|---|---|---|---|---|---|---|---|
| 1777052442 | 17.22° C | 48% | 1015.6 hPa | 0 mm | - | - | - |
| 1777050922 | 17.78° C | 46% | 1015.4 hPa | 0 mm | - | - | - |
| 1777048846 | 17.78° C | 43% | 1015.4 hPa | 0 mm | - | - | - |
| 1777047062 | 18.33° C | 41% | 1015.6 hPa | 0 mm | - | - | - |
| 1777046423 | 18.33° C | 41% | 1015.6 hPa | 0 mm | - | - | - |
| 1777043717 | 18.89° C | 40% | 1015.5 hPa | 0 mm | - | - | - |
| 1777040120 | 19.44° C | 43% | 1015.8 hPa | 0 mm | - | - | - |
| 1777039528 | 19.44° C | 42% | 1015.9 hPa | 0 mm | - | - | - |
| 1777039223 | 19.44° C | 41% | 1015.9 hPa | 0 mm | - | - | - |
| 1777038345 | 20° C | 42% | 1015.8 hPa | 0 mm | - | - | - |
| 1777038019 | 20° C | 42% | 1015.9 hPa | 0 mm | - | - | - |
| 1777037119 | 20° C | 43% | 1016 hPa | 0 mm | - | - | - |
| 1777034726 | 20° C | 40% | 1016.1 hPa | 0 mm | - | - | - |
| 1777033240 | 20.56° C | 40% | 1016.2 hPa | 0 mm | - | - | - |
| 1777031420 | 20.56° C | 38% | 1016.2 hPa | 0 mm | - | - | - |
| 1777031121 | 20.56° C | 39% | 1016.2 hPa | 0 mm | - | - | - |
| 1777030218 | 21.11° C | 40% | 1016.3 hPa | 0 mm | - | - | - |
| 1777029323 | 21.11° C | 38% | 1016.3 hPa | 0 mm | - | - | - |
| 1777027536 | 21.11° C | 38% | 1016.7 hPa | 0 mm | - | - | - |
| 1777026923 | 20.56° C | 37% | 1016.6 hPa | 0 mm | - | - | - |
| 1777026318 | 20.56° C | 38% | 1016.6 hPa | 0 mm | - | - | - |
| 1777025725 | 20.56° C | 39% | 1016.9 hPa | 0 mm | - | - | - |
| 1777023323 | 20.56° C | 41% | 1017 hPa | 0 mm | - | - | - |
| 1777021525 | 20.56° C | 41% | 1017 hPa | 0 mm | - | - | - |
| 1777018824 | 20° C | 43% | 1017.2 hPa | 0 mm | - | - | - |
* Rain latest hour (hover to see other rain measurements)
** Current wind speed in m/s (hover to see current wind gust speed)